Starlink 5031

operational
NORAD ID: 53889 Int'l Des: 2022-119 Owner: SPXS Country: US Constellation: starlink
LEOCIRCULAR

Starlink 5031について

説明を読み込み中...

リアルタイム位置

3D地球を読み込み中...

次回通過

高度履歴

Altitude vs Time

uPlot chart will show altitude changes over time

軌道要素

1 53889U 22119D 25303.93338717 .00003521 00000-0 23925-3 0 9997
2 53889 53.2180 186.7736 0001486 88.2560 271.8602 15.08831117172090
Epoch: Oct 30, 2025 • Age: 17 hours

現在のステータス

高度 554.1 km
速度 7.58 km/s
衛星直下点 -40.92°S, 133.55°E
打ち上げ日 Sep 24, 2022
運用期間 3 years
タイプ internet

技術仕様

分類 Payload
質量 305.00 kg
乾燥質量 290.00 kg
総質量 305.00 kg
長さ 0.20 m
直径 2.80 m
スパン 9.00 m
形状 Box + pan
製造者 SPXS
バスタイプ Starlink
フェーズステータス In Orbit
所有者/国 SPXS/US

大規模コンステレーション

Loading constellations...